McAllen, TX

2:35 AM CDT on September 25, 2016 (GMT -0500)
McAllen Miller International

Weather History for KMFE - February, 2012

Change the Weather History Date:

Friday, February 17, 2012

  Actual Average Record
Temperature  
Mean Temperature 70 °F 65 °F  
Max Temperature 75 °F 76 °F 91 °F (1982)
Min Temperature 65 °F 55 °F 34 °F (1917)
Degree Days  
Heating Degree Days 0 3  
Month to date heating degree days 79 76  
Since 1 July heating degree days 359 503  
Cooling Degree Days 5 4  
Month to date cooling degree days 64 50  
Year to date cooling degree days 176 112  
Growing Degree Days 20 (Base 50)    
Moisture  
Dew Point 69 °F    
Average Humidity 92    
Maximum Humidity 97    
Minimum Humidity 87    
Precipitation  
Precipitation 0.01 in 0.04 in 0.91 in (1982)
Month to date precipitation 2.77 0.74  
Year to date precipitation 2.98 1.79  
Sea Level Pressure  
Sea Level Pressure 29.89 in    
Wind  
Wind Speed 8 mph (ESE)    
Max Wind Speed 23 mph    
Max Gust Speed 32 mph    
Visibility 7 miles    
Events Rain    
T = Trace of Precipitation, MM = Missing Value Source: NWS Daily Summary

Daily Weather History Graph

Daily Weather History Graph

Search for Another Location

Airport or City:

Trip Planner

Search our weather history database for the weather conditions in past years. The results will help you decide how hot, cold, wet, or windy it might be!

Date:

Astronomy

Feb. 17, 2012 Rise Set
Actual Time 7:07 AM CST 6:26 PM CST
Civil Twilight 6:43 AM CST 6:50 PM CST
Nautical Twilight 6:16 AM CST 7:17 PM CST
Astronomical Twilight 5:49 AM CST 7:44 PM CST
Moon 3:42 AM CST (2/17) 2:38 PM CST (2/17)
Length of Visible Light 12h 06m
Length of Day
11h 19m
Waning Crescent, 19% of the Moon is Illuminated
Feb 17
Waning Crescent
Feb 21
New
Feb 29
First Quarter
Mar 8
Full
Mar 14
Last Quarter

Hourly Weather History & Observations

Time (CST) Temp. Dew Point Humidity Pressure Visibility Wind Dir Wind Speed Gust Speed Precip Events Conditions
12:16 AM 69.8 °F 66.2 °F 88% 29.95 in 10.0 mi SE 18.4 mph 24.2 mph 0.00 in Rain Light Rain
12:24 AM 69.8 °F 66.2 °F 88% 29.95 in 10.0 mi SE 20.7 mph 27.6 mph 0.00 in Rain Light Rain
12:53 AM 69.1 °F 64.9 °F 87% 29.94 in 10.0 mi ESE 13.8 mph - 0.00 in   Clear
1:53 AM 66.9 °F 64.0 °F 90% 29.94 in 10.0 mi SSW 3.5 mph - N/A   Clear
2:53 AM 68.0 °F 64.9 °F 90% 29.93 in 10.0 mi East 5.8 mph - N/A   Scattered Clouds
3:02 AM 68.0 °F 64.4 °F 88% 29.93 in 10.0 mi ESE 5.8 mph - N/A   Mostly Cloudy
3:44 AM 68.0 °F 64.4 °F 88% 29.93 in 10.0 mi SE 5.8 mph - N/A   Mostly Cloudy
3:53 AM 68.0 °F 64.9 °F 90% 29.94 in 10.0 mi SE 4.6 mph - N/A   Mostly Cloudy
4:33 AM 68.0 °F 64.4 °F 88% 29.93 in 10.0 mi East 4.6 mph - N/A   Overcast
4:53 AM 69.1 °F 66.0 °F 90% 29.93 in 10.0 mi East 4.6 mph - N/A   Overcast
5:41 AM 69.8 °F 66.2 °F 88% 29.93 in 10.0 mi East 8.1 mph - N/A   Overcast
5:53 AM 69.1 °F 66.0 °F 90% 29.93 in 10.0 mi East 9.2 mph - N/A   Overcast
6:53 AM 69.1 °F 66.0 °F 90% 29.94 in 9.0 mi East 8.1 mph - N/A   Overcast
7:53 AM 69.1 °F 66.0 °F 90% 29.95 in 7.0 mi NE 8.1 mph - 0.00 in   Overcast
8:32 AM 68.0 °F 66.2 °F 94% 29.96 in 6.0 mi ENE 5.8 mph - 0.00 in Rain Light Rain
8:53 AM 68.0 °F 66.0 °F 93% 29.96 in 8.0 mi ENE 5.8 mph - 0.00 in   Overcast
9:53 AM 69.1 °F 66.9 °F 93% 29.97 in 5.0 mi NE 5.8 mph - 0.00 in   Overcast
10:53 AM 70.0 °F 68.0 °F 93% 29.96 in 3.0 mi ENE 6.9 mph - N/A   Overcast
11:05 AM 71.6 °F 69.8 °F 94% 29.96 in 2.5 mi ENE 6.9 mph - N/A   Overcast
11:12 AM 71.6 °F 69.8 °F 94% 29.96 in 3.0 mi East 6.9 mph - N/A   Overcast
11:53 AM 72.0 °F 69.1 °F 91% 29.94 in 5.0 mi East 8.1 mph - N/A   Overcast
12:53 PM 71.1 °F 69.1 °F 93% 29.92 in 4.0 mi ENE 9.2 mph - 0.01 in Rain Light Rain
1:53 PM 73.0 °F 70.0 °F 90% 29.88 in 10.0 mi East 8.1 mph - 0.00 in   Overcast
2:00 PM 73.4 °F 69.8 °F 88% 29.88 in 10.0 mi East 6.9 mph - N/A   Overcast
2:18 PM 73.4 °F 69.8 °F 88% 29.87 in 10.0 mi East 5.8 mph - N/A   Overcast
2:30 PM 75.2 °F 71.6 °F 89% 29.86 in 10.0 mi East 9.2 mph - N/A   Overcast
2:53 PM 73.9 °F 70.0 °F 87% 29.85 in 10.0 mi East 9.2 mph - N/A   Overcast
3:53 PM 75.0 °F 71.1 °F 87% 29.84 in 8.0 mi East 6.9 mph - N/A   Overcast
4:34 PM 75.2 °F 71.6 °F 89% 29.84 in 7.0 mi East 5.8 mph - N/A   Mostly Cloudy
4:53 PM 75.0 °F 71.1 °F 87% 29.84 in 7.0 mi East 6.9 mph - N/A   Mostly Cloudy
5:00 PM 75.2 °F 71.6 °F 89% 29.84 in 7.0 mi ESE 8.1 mph - N/A   Mostly Cloudy
5:07 PM 75.2 °F 71.6 °F 89% 29.84 in 7.0 mi ESE 5.8 mph - N/A   Mostly Cloudy
5:48 PM 75.2 °F 71.6 °F 89% 29.82 in 6.0 mi ESE 9.2 mph - N/A   Overcast
5:53 PM 75.0 °F 71.1 °F 87% 29.82 in 6.0 mi ESE 9.2 mph - N/A   Overcast
6:24 PM 75.2 °F 71.6 °F 89% 29.83 in 5.0 mi SE 8.1 mph - N/A   Overcast
6:53 PM 73.9 °F 71.1 °F 91% 29.83 in 5.0 mi ESE 9.2 mph - N/A   Overcast
7:25 PM 73.4 °F 71.6 °F 94% 29.84 in 4.0 mi ESE 9.2 mph - 0.00 in Rain Light Rain
7:32 PM 73.4 °F 71.6 °F 94% 29.85 in 5.0 mi SE 10.4 mph - 0.00 in Rain Light Rain
7:41 PM 73.4 °F 71.6 °F 94% 29.84 in 4.0 mi ESE 10.4 mph - 0.00 in Rain Light Rain
7:49 PM 73.4 °F 71.6 °F 94% 29.85 in 4.0 mi SE 10.4 mph - 0.00 in   Overcast
7:53 PM 73.9 °F 71.1 °F 91% 29.84 in 4.0 mi SE 9.2 mph - 0.00 in   Overcast
8:53 PM 73.0 °F 71.1 °F 93% 29.83 in 4.0 mi SE 12.7 mph - 0.00 in   Overcast
9:53 PM 73.0 °F 71.1 °F 93% 29.84 in 5.0 mi SSE 9.2 mph - N/A   Overcast
10:53 PM 73.0 °F 71.1 °F 93% 29.83 in 5.0 mi SSE 11.5 mph - N/A   Overcast
11:53 PM 73.0 °F 70.0 °F 90% 29.81 in 6.0 mi SSE 13.8 mph - N/A   Overcast